カタログに戻る

STARLINK-4209

運用中通信VLEO
NORAD 52855·PAYLOAD·🇺🇸 United States

打ち上げ Jun 17, 2022 から Cape Canaveral Space Force Station

Loading…

次のパス (今後24時間)

TLE

最新Source: CelesTrak SupGP

元期: Sep 15, 2026, 01:53 UTC

1 52855C 22062AB  26258.07895833 -.00033205  00000+0 -10677-2 0  2588
2 52855  53.1573 242.0481 0001373  94.2500 338.1216 15.31720444    12

AllMySatでSTARLINK-4209をリアルタイム追跡

Download on the App Store